This demonstration page uses our WeatherBlox Daily Observations layout. Learn more.

Left ArrowRight Arrow

Hourly Observations for October 31, 2018

Temp ( °F °C ) Dew Point ( °F °C ) Humidity (%) Winds ( mph kmh ) Pressure ( in mb ) Visibility ( mi km ) Precip ( " mm )
12:57 am 00:57 Mostly Cloudy 43 6.1 35 1.7 74 74 NW 7 11 30.08 1019 10 16 0.00 0.00
1:57 am 01:57 Clear 40 4.4 34 1.1 79 79 NW 7 11 30.08 1019 10 16 0.00 0.00
2:57 am 02:57 Clear 40 4.4 34 1.1 79 79 NW 8 13 30.08 1019 10 16 0.00 0.00
3:57 am 03:57 Clear 40 4.4 34 1.1 79 79 NW 9 15 30.08 1019 10 16 0.00 0.00
4:57 am 04:57 Clear 40 4.4 34 1.1 79 79 WNW 7 11 30.09 1019 10 16 0.00 0.00
5:57 am 05:57 Mostly Clear 42 5.6 33 0.6 71 71 NW 8 13 30.11 1020 10 16 0.00 0.00
6:57 am 06:57 Mostly Cloudy 40 4.4 34 1.1 79 79 NW 6 9 30.12 1020 10 16 0.00 0.00
7:57 am 07:57 Mostly Clear 41 5 34 1.1 76 76 NW 7 11 30.13 1020 10 16 0.00 0.00
8:57 am 08:57 Partly Cloudy 42 5.6 34 1.1 73 73 NW 6 9 30.15 1021 10 16 0.00 0.00
9:57 am 09:57 Sunny 45 7.2 34 1.1 66 66 NNW 8 13 30.15 1021 10 16 0.00 0.00
10:57 am 10:57 Mostly Sunny 48 8.9 33 0.6 56 56 N 9 15 30.14 1021 10 16 0.00 0.00
11:57 am 11:57 Partly Cloudy 51 10.6 33 0.6 50 50 N 8 13 30.14 1021 10 16 0.00 0.00
12:57 pm 12:57 Sunny 53 11.7 32 0 45 45 N 8 13 30.11 1020 10 16 0.00 0.00
1:57 pm 13:57 Sunny 56 13.3 30 -1.1 37 37 Calm 30.08 1019 10 16 0.00 0.00
2:57 pm 14:57 Mostly Sunny 58 14.4 29 -1.7 33 33 N 8 13 30.03 1017 10 16 0.00 0.00
3:57 pm 15:57 Partly Cloudy 57 13.9 28 -2.2 33 33 W 7 11 30.03 1017 10 16 0.00 0.00
4:57 pm 16:57 Sunny 57 13.9 26 -3.3 30 30 NW 6 9 30.01 1016 10 16 0.00 0.00
5:57 pm 17:57 Sunny 55 12.8 27 -2.8 34 34 W 3 6 30.00 1016 10 16 0.00 0.00
7:57 pm 19:57 Clear 47 8.3 29 -1.7 50 50 W 3 6 30.02 1017 10 16 0.00 0.00
8:57 pm 20:57 Clear 43 6.1 30 -1.1 60 60 Calm 30.01 1016 10 16 0.00 0.00
9:57 pm 21:57 Clear 40 4.4 29 -1.7 65 65 Calm 30.01 1016 10 16 0.00 0.00
10:57 pm 22:57 Clear 39 3.9 30 -1.1 70 70 Calm 30.00 1016 10 16 0.00 0.00
11:57 pm 23:57 Clear 34 1.1 28 -2.2 79 79 Calm 30.00 1016 10 16 0.00 0.00

Powered by AerisWeather